Regional Weather Roundup
Issued by NWS

Home | Current Version | Previous Version | Graphics & Text | Print | Product List | Glossary On
Versions: 1 2 3 4 5 6 7 8 9 10 11 12 13 14 15 16 17 18 19 20 21 22 23 24 25 26 27 28 29 30 31 32 33 34 35 36 37 38 39 40 41 42 43 44 45 46 47 48 49 50
000
ASUS43 KBIS 152110
RWRND

NORTH DAKOTA REGIONAL WEATHER ROUNDUP
NATIONAL WEATHER SERVICE BISMARCK ND
300 PM CST FRI DEC 15 2017

NOTE: "FAIR" INDICATES FEW OR NO CLOUDS BELOW 12,000 FEET WITH NO
SIGNIFICANT WEATHER AND/OR OBSTRUCTIONS TO VISIBILITY.


NDZ001>003-009>011-017-152200-
NORTHWEST NORTH DAKOTA

CITY           SKY/WX    TMP DP  RH WIND       PRES   REMARKS
WILLISTON      MOSUNNY   39  23  52 NW5       29.56S
MINOT          CLOUDY    40  26  57 SW6       29.52F
MINOT AFB      CLOUDY    39  26  59 W12       29.50F
$$

NDZ018>021-031>035-040>046-152200-
SOUTHWEST NORTH DAKOTA

CITY           SKY/WX    TMP DP  RH WIND       PRES   REMARKS
BISMARCK       CLOUDY    44  25  47 W7        29.58F
DICKINSON      CLOUDY    45  23  42 W15       29.56F
GARRISON         N/A     40  24  53 W10       29.54R
HETTINGER ARPT CLOUDY    48  20  32 W20       29.62F
$$

NDZ004>008-012>016-024-026-027-054-152200-
NORTHEAST NORTH DAKOTA

CITY           SKY/WX    TMP DP  RH WIND       PRES   REMARKS
GRAND FORKS    LGT SNOW  22  19  89 S13       29.67F FOG     WCI  10
GRND FRKS AFB  CLOUDY    22  19  87 S10       29.66F WCI  11
DEVILS LAKE    LGT SNOW  29  27  92 SE10      29.57F FOG     WCI  20
$$

NDZ022-023-025-028>030-036>039-047>053-152200-
SOUTHEAST NORTH DAKOTA

CITY           SKY/WX    TMP DP  RH WIND       PRES   REMARKS
FARGO          MOSUNNY   27  23  85 S12       29.69F WCI  17
JAMESTOWN      FLURRIES  32  30  92 S9        29.59F
$$




USA.gov is the U.S. government's official web portal to all federal, state and local government web resources and services.